Terminal Aerodrome Forecast
Issued by NWS

Home | Current Version | Previous Version | Text Only | Print | Product List | Glossary On
Versions: 1 2 3 4 5 6 7 8 9 10 11 12 13 14 15 16 17 18 19 20 21 22 23 24 25 26 27
000
FTAK31 PAFA 011129
TAFAOT
TAF
PAOT 011129Z 0112/0212 29006KT 1SM BR VV003
     FM011800 31008KT P6SM BKN006
     FM012100 31008KT P6SM SCT006 BKN015=

USA.gov is the U.S. government's official web portal to all federal, state and local government web resources and services.